Regional Weather Roundup
Issued by NWS

Home | Current Version | Previous Version | Text Only | Print | Product List | Glossary Off
Versions: 1 2 3 4 5 6 7 8 9 10 11 12 13 14 15 16 17 18 19 20 21 22 23 24 25 26 27 28 29 30 31 32 33 34 35 36 37 38 39 40 41 42 43 44 45 46 47 48 49 50

000
ASUS45 KCYS 290410
RWRWY

WYOMING REGIONAL WEATHER ROUNDUP
NATIONAL WEATHER SERVICE CHEYENNE WY
1000 PM MDT THU JUL 28 2016

NOTE:  "FAIR" INDICATES FEW OR NO CLOUDS BELOW 12,000 FEET
WITH NO SIGNIFICANT WEATHER AND/OR OBSTRUCTIONS TO VISIBILITY.

WYZ001-290500-
YELLOWSTONE NATIONAL PARK

CITY           SKY/WX    TMP DP  RH WIND       PRES   REMARKS
LK YELLOWSTONE   N/A     55  38  52 NW3       30.37R
W YELLOWSTONE  NOT AVBL

$$
WYZ002>013-054>058-071-098>099-290500-
NORTHERN WYOMING

CITY           SKY/WX    TMP DP  RH WIND       PRES   REMARKS
JACKSON        FAIR      63  36  36 E8        30.23R
CODY           FAIR      68  46  45 CALM      30.23R
GREYBULL       FAIR      77  47  34 N12       30.11R
WORLAND        FAIR      70  49  47 NE5       30.13R
SHERIDAN       FAIR      64  53  67 S5        30.18R
BUFFALO        FAIR      64  53  67 W3        30.25R
GILLETTE       FAIR      58  56  93 S5        30.19R
HULETT         FAIR      61  55  82 SE6       30.20S
NEWCASTLE      FAIR      68  50  52 N3        30.18R

$$
WYZ014>020-022>026-101>103-290500-
CENTRAL WYOMING

CITY           SKY/WX    TMP DP  RH WIND       PRES   REMARKS
BIG PINEY      FAIR      60  26  27 N9        30.29R
PINEDALE       FAIR      61  32  33 NE8       30.30R
DUBOIS         FAIR      63  45  51 E3        30.32R
LANDER         FAIR      71  43  36 W6        30.23R
RIVERTON       FAIR      72  42  34 NE8       30.23R
CASPER         FAIR      68  49  50 NE10      30.24R
DOUGLAS          N/A    N/A N/A N/A MISG      30.23R

$$
WYZ021-027>030-104>119-290500-
SOUTHERN WYOMING

CITY           SKY/WX    TMP DP  RH WIND       PRES   REMARKS
EVANSTON       FAIR      74  30  19 NW5       30.29R
KEMMERER         N/A    N/A N/A N/A N10       30.31R
FORT BRIDGER   FAIR      71  22  15 N5        30.31R
ROCK SPRINGS   FAIR      72  39  30 NE15G22   30.26R
DIXON          FAIR      71  23  16 SE3       30.20R
RAWLINS        FAIR      67  48  50 NE14      30.28R
SARATOGA       FAIR      64  46  52 S7        30.27R
LARAMIE        FAIR      59  54  83 SE10      30.33R
CHEYENNE       FAIR      63  56  78 CALM      30.29R
TORRINGTON     FAIR      66  57  72 NE9       30.17R
PINE BLUFFS    FAIR      61  54  77 S3        30.25R

$$



USA.gov is the U.S. government's official web portal to all federal, state and local government web resources and services.